This demonstration page uses our WeatherBlox Daily Observations layout. Learn more.

Left ArrowRight Arrow

34.02893, -84.19858

Hourly Observations for November 10, 2019

Temp ( °F °C ) Dew Point ( °F °C ) Humidity (%) Winds ( mph kmh ) Pressure ( in mb ) Visibility ( mi km ) Precip ( " mm )
12:53 am 00:53 Clear 35 1.7 33 0.6 93 93 Calm 30.24 1024 8 13 0.00 0.00
1:53 am 01:53 Clear 35 1.7 33 0.6 93 93 Calm 30.23 1024 8 13 0.00 0.00
2:53 am 02:53 Clear 34 1.1 33 0.6 97 97 Calm 30.23 1024 7 11 0.00 0.00
3:53 am 03:53 Clear 34 1.1 32 0 92 92 Calm 30.22 1023 7 11 0.00 0.00
4:53 am 04:53 Clear with Mist and Fog 33 0.6 32 0 96 96 Calm 30.24 1024 6 10 0.00 0.00
5:53 am 05:53 Clear with Mist and Fog 32 0 31 -0.6 96 96 Calm 30.24 1024 5 8 0.00 0.00
6:53 am 06:53 Clear with Mist and Fog 33 0.6 32 0 96 96 Calm 30.27 1025 5 8 0.00 0.00
7:53 am 07:53 Sunny with Mist and Fog 34 1.1 34 1.1 100 100 Calm 30.27 1025 6 10 0.00 0.00
8:53 am 08:53 Sunny 43 6.1 39 3.9 86 86 Calm 30.27 1025 10 16 0.00 0.00
9:53 am 09:53 Sunny 51 10.6 40 4.4 66 66 W 8 13 30.26 1025 10 16 0.00 0.00
10:53 am 10:53 Sunny 55 12.8 40 4.4 57 57 W 5 7 30.26 1025 10 16 0.00 0.00
11:53 am 11:53 Sunny 58 14.4 40 4.4 51 51 Calm 30.23 1024 10 16 0.00 0.00
12:53 pm 12:53 Sunny 61 16.1 40 4.4 46 46 WSW 5 7 30.19 1023 10 16 0.00 0.00
2:53 pm 14:53 Sunny 63 17.2 40 4.4 43 43 SW 7 11 30.15 1021 10 16 0.00 0.00
3:53 pm 15:53 Sunny 63 17.2 39 3.9 41 41 W 6 9 30.14 1021 10 16 0.00 0.00
4:53 pm 16:53 Sunny 62 16.7 39 3.9 43 43 SW 6 9 30.15 1021 10 16 0.00 0.00
5:53 pm 17:53 Clear 53 11.7 41 5 64 64 Calm 30.16 1021 10 16 0.00 0.00
6:53 pm 18:53 Clear 50 10 43 6.1 77 77 Calm 30.16 1021 10 16 0.00 0.00
7:53 pm 19:53 Clear 46 7.8 42 5.6 86 86 Calm 30.18 1022 10 16 0.00 0.00
8:53 pm 20:53 Clear 45 7.2 43 6.1 93 93 Calm 30.17 1022 10 16 0.00 0.00
9:53 pm 21:53 Clear 44 6.7 42 5.6 93 93 Calm 30.16 1022 10 16 0.00 0.00
10:53 pm 22:53 Clear 42 5.6 41 5 96 96 Calm 30.16 1022 8 13 0.00 0.00
11:53 pm 23:53 Clear 42 5.6 40 4.4 92 92 Calm 30.16 1021 7 11 0.00 0.00

Powered by AerisWeather